Regional Weather Roundup
Issued by NWS New Orleans/Baton Rouge, LA

Home | Current Version | Previous Version | Text Only | Print | Product List | Glossary On
Versions: 1 2 3 4 5 6 7 8 9 10 11 12 13 14 15 16 17 18 19 20 21 22 23 24 25 26 27 28
000
ASUS44 KLIX 231611
RWRLIX
NEW ORLEANS REGIONAL WEATHER ROUNDUP
NATIONAL WEATHER SERVICE NEW ORLEANS LA
1100 AM CDT SAT JUL 23 2016

NOTE: "FAIR" INDICATES FEW OR NO CLOUDS BELOW 12,000 FEET WITH NO
      SIGNIFICANT WEATHER AND/OR OBSTRUCTIONS TO VISIBILITY.
      SKY/WX - SKY CONDITION AND SIGNIFICANT WEATHER.
      TMP - AIR TEMPERATURE.     DP    - DEWPOINT TEMPERATURE.
      RH  - RELATIVE HUMIDITY.   PRES  - PRESSURE.
      HI  - HEAT INDEX.          WCI   - WIND CHILL INDEX.

*  THESE STATIONS ARE NOT NWS OR FAA STATIONS AND ARE NOT UNDER
   NWS QUALITY CONTROL.

LAZ038-040-048-061>063-065>067-069-231700-
SOUTHEAST LOUISIANA

CITY           SKY/WX    TMP DP  RH WIND       PRES   REMARKS
N.O. AUDUBON     N/A     93 N/A N/A MISG        N/A
N.O. INTL ARPT PTSUNNY   91  75  59 NW8       30.01S HX 101
N.O. LAKEFRONT MOSUNNY   88  77  69 NW8       30.02S HX 100
N.O. DOWNTOWN* NOT AVBL
RESERVE*       PTSUNNY   91  78  65 W5        30.01F HX 106
SLIDELL        SUNNY     90  76  63 CALM      30.01S HX 101
BATON ROUGE    MOSUNNY   88  76  67 SW5       30.01F HX  99
BOOTHVILLE     CLOUDY    86  78  77 S5        30.03R HX  98
BELLE CHASSE   MOSUNNY   88  77  69 VRB3      30.01S HX 100
BOGALUSA*        N/A     88  74  64 CALM      30.03S HX  97
GALLIANO*      CLOUDY    89  78  69 SW8       30.01S HX 102
NEW ROADS*       N/A     87  77  70 W6        30.02S HX  99
GONZALES*        N/A     88  75  65 SW6       30.01S HX  98
HAMMOND*       PTSUNNY   88  73  62 NW5       30.01F HX  96
HOUMA*         NOT AVBL
PORT FOURCHON* SUNNY     86  72  62 SW7       30.02S

$$

MSZ070-080>082-231700-
SOUTHERN MISSISSIPPI

CITY           SKY/WX    TMP DP  RH WIND       PRES   REMARKS
MCCOMB         PTSUNNY   85  76  74 CALM      30.03S
GULFPORT       PTSUNNY   87  77  72 SE7       30.01S HX  99
BILOXI         CLOUDY    86  76  72 NE1       30.01S HX  97
PASCAGOULA     MOSUNNY   88  78  72 SW5       30.02S HX 101
STENNIS ARPT*  MOSUNNY   88  72  58 CALM      30.01F

$$

COASTAL OBSERVATIONS
LAKE AND NEARSHORE STATIONS

STATION/POSITION TIME  TEMP    WIND        PRES    WAVE
                       AIR SEA DIR/SP/G            HT/PER
                 (UTC) (F)     (DEG/KT/KT) (MB)    (FT/S)
PASCAGOULA       1500   84     190/  4/  5 1016.0
WAVELAND YACHT   1500   83 85  150/  3/  3 1016.4
GRAND ISLE       1500   82 89  150/  4/  8 1016.6
SOUTHWEST PASS   1500          130/  1/  2   N/A
NEW CANAL        1500   85 87  350/  4/  5 1015.7
SHELL BEACH      1500   84 88  280/  1/  3 1016.6

OFFSHORE STATIONS

STATION/POSITION TIME  TEMP    WIND        PRES    WAVE
                       AIR SEA DIR/SP/G            HT/PER
                 (UTC) (F)     (DEG/KT/KT) (MB)    (FT/S)
64 S DAUPHIN ISL 1500   82 88  250/ 10/ 12 1016.5

$$





USA.gov is the U.S. government's official web portal to all federal, state and local government web resources and services.